Regional Weather Roundup
Issued by NWS San Diego, CA

Home | Current Version | Previous Version | Text Only | Print | Product List | Glossary On
Versions: 1 2 3 4 5 6 7 8 9 10 11 12 13 14 15 16 17 18 19 20 21 22 23 24 25 26 27 28 29 30 31 32 33 34 35 36 37 38 39 40 41 42 43 44 45 46 47 48 49 50
000
ASUS46 KSGX 300811
RWRSGX

SAN DIEGO HOURLY WEATHER ROUNDUP
NATIONAL WEATHER SERVICE SAN DIEGO CA
100 AM PDT THU JUL 30 2015

NOTE: "FAIR" INDICATES FEW OR NO CLOUDS BELOW 12,000 FEET WITH NO
SIGNIFICANT WEATHER AND/OR OBSTRUCTIONS TO VISIBILITY.

CAZ042-043-060-061-PZZ750-775-300900-

GREATER SAN DIEGO AREA

CITY           SKY/WX    TMP DP  RH WIND       PRES   REMARKS
LINDBERGH FLD  MOCLDY    71  63  75 NW5       29.99S
POINT LOMA       N/A     68  63  85 NW6         N/A
NATIONAL CITY    N/A     71  66  83 CALM      29.98S
CHULA VISTA      N/A     70  66  87 CALM      29.91S
IMPERIAL BEACH MOCLDY   N/A N/A N/A NW7       29.98F
BROWN FIELD    MOCLDY    68  64  87 W3        29.99S
MIRAMAR MCAS   MOCLDY    72  63  73 W3        29.98F
MONTGOMERY FLD MOCLDY    70  63  78 NW5       29.99S

$$

NORTH SAN DIEGO COUNTY

CITY           SKY/WX    TMP DP  RH WIND       PRES   REMARKS
CAMP PENDLETON MOCLDY    70  64  81 SW3       29.96F
OCEANSIDE AP   MOCLDY    70  64  81 CALM      29.96F
OCEANSIDE HBR    N/A     70  67  89 W3        30.00S
VISTA            N/A     69  64  83 CALM      29.95S
CARLSBAD       MOCLDY    69  64  84 CALM      29.97F
DEL MAR          N/A     68  65  91 CALM      30.00S
FALLBROOK        N/A     69  67  93 CALM      29.97S
ESCONDIDO        N/A     70  64  80 CALM      29.99F
POWAY            N/A     69  63  83 CALM      29.98S

$$

EAST SAN DIEGO COUNTY

CITY           SKY/WX    TMP DP  RH WIND       PRES   REMARKS
RAMONA         MOCLDY    68  62  81 W5        30.00F
SANTEE LAKES     N/A     69  64  84 CALM      29.96F
LA MESA          N/A     68  64  86 CALM      29.91S
JAMUL            N/A     68  64  87 CALM      29.96S
DESCANSO N       N/A     75  65  72 CALM      29.79S
CAMPO            N/A     72  66  81 CALM      30.03S

$$

ORANGE COUNTY AND THE LOS ANGELES BASIN

CITY           SKY/WX    TMP DP  RH WIND       PRES   REMARKS
JOHN WAYNE AP  PTCLDY    70  65  84 W3        29.98S
LAKE FOREST FR   N/A     67  60  80 CALM      29.87R
SANTA ANA        N/A     72  65  78 CALM      29.93S
HUNTINGTON BCH   N/A     70  67  91 CALM      29.99S
LOS ALAMITOS   FAIR      70  66  85 CALM      29.98R
FULLERTON      PTCLDY    73  64  73 CALM      29.97S
LONG BEACH     PTCLDY    71  64  78 NW7       29.98S
L.A. AP        PTCLDY    68  63  84 VRB5      29.99S
L.A. DOWNTOWN  PTCLDY    69  62  78 CALM      29.98S

$$

THE INLAND EMPIRE

CITY           SKY/WX    TMP DP  RH WIND       PRES   REMARKS
CORONA         CLEAR     69  63  81 CALM      29.99S
CHINO          CLEAR     71  63  75 W5        30.00S
ONTARIO        PTCLDY    71  62  73 W3        29.99F
RIVERSIDE AP   CLEAR     72  63  73 W3        30.00S
MORENO VALLEY    N/A     73  67  80 CALM      29.95S
MARCH ARB      CLOUDY    72  63  74 NW3       30.01F
HORSETHIEF CYN   N/A     70  60  70 W6        29.99F
PERRIS           N/A     74  64  72 NW3       30.02F
MENIFEE          N/A     75  66  73 SW1       30.04S
HEMET EAST       N/A     73  64  73 CALM      29.97F
FRENCH VALLEY  FAIR      73  63  68 CALM      30.01S
TEMECULA         N/A     72  66  79 CALM      29.96F

$$

SAN BERNARDINO AND RIVERSIDE COUNTY MOUNTAINS

CITY           SKY/WX    TMP DP  RH WIND       PRES   REMARKS
BIG BEAR AP    PTCLDY    54  50  87 CALM      30.37F
ANGELUS OAKS     N/A     63  53  69 CALM      29.86S
PINE COVE        N/A     67  57  68 CALM      29.91S

$$

SOUTHERN DESERT INCLUDING THE COACHELLA VALLEY

CITY           SKY/WX    TMP DP  RH WIND       PRES   REMARKS
PALM SPRINGS   MOCLDY    93  65  39 NW7       29.91S HX  95
THOUSAND PALMS   N/A     92  66  42 N2        29.86F HX  95
PALM DESERT      N/A     93  69  45 CALM        N/A  HX  98
THERMAL        MOCLDY    90  73  57 S3        29.84S HX  98
BLYTHE         CLOUDY    95  68  41 S9        29.89S HX  99
IMPERIAL AP    CLEAR     91  66  43 SE3       29.86R
EL CENTRO NAS  CLEAR     86  65  49 NE5       29.87S
YUMA AZ        MOCLDY    91  65  41 CALM      29.89S

$$

UPPER DESERT

CITY           SKY/WX    TMP DP  RH WIND       PRES   REMARKS
VICTORVILLE AP PTCLDY    77  66  69 CALM      30.08R
HESPERIA         N/A     77  62  59 NW3       30.00S
APPLE VALLEY     N/A     78  63  60 CALM      30.10S
PALMDALE       PTCLDY    79  68  69 SE5       30.06R
LANCASTER      PTCLDY    82  56  40 S5        30.04R
EDWARDS AFB    PTCLDY    79  60  51 SE6       30.02R
DAGGETT        PTCLDY    79  66  64 CALM      30.01R
29 PALMS N     MOCLDY    78  71  79 VRB3      30.10R
NEEDLES        CLOUDY    96  57  27 SW12      29.90S HX  95

$$

REGIONAL REPORTS

CITY           SKY/WX    TMP DP  RH WIND       PRES   REMARKS
SANTA BARBARA  CLOUDY    64  60  87 CALM      29.98R
SANDBERG       PTCLDY    77  54  44 W7        30.20S
LAS VEGAS NV   CLOUDY    91  51  25 S8        29.94F
PHOENIX AZ     CLOUDY    87  61  41 SE7       29.96F
TIJUANA        MOCLDY    68  61  77 W6        30.01S
ENSENADA NW      N/A     70  32  24 CALM      29.95F

$$

OFFSHORE ISLANDS

CITY           SKY/WX    TMP DP  RH WIND       PRES   REMARKS
CATALINA ARPT  PTCLDY    62  60  93 E3        30.03R
SAN NICOLAS IS MOCLDY   N/A N/A N/A W8        29.99S

$$

MARINE AND OFFSHORE BUOY REPORTS

STATION/POSITION SKY/WX   TEMP    WIND        PRES    SWELL
                          AIR SEA DIR/SP/G            HT/PER/DIR
                          (F)     (DEG/KT/KT) (MB)    (FT/S/D)
TANNER BANKS               65 68  320/  6/  8 1015.8R   5/230/15
S CLEMENTE BASIN           67 70  290/  6/  8 1015.2S   3/210/15
SAN NICOLAS IS.               66                N/A     3/280/11
SO. S. ROSA ISLA           64 68  300/  8/ 12 1014.7S   5/10
W. S. BARBARA CH           61 60  310/ 12/ 14 1014.6R   3/190/15
M. S. BARBARA CH           64 67  230/  8/ 10 1015.5R
S. MONICA BASIN            68 73   20/  4/  6 1015.2R   3/230/15
S PEDRO CHANNEL               71                N/A     2/240/15
DANA POINT                    71                N/A     3/200/15
OCEANSIDE OFFSHR              72                N/A     3/220/15
TORREY PINES OTR              72                N/A     3/230/18
MISSION BAY BUOY              72                N/A     3/210/15
POINT LOMA SOUTH              71                N/A     3/220/15

$$




USA.gov is the U.S. government's official web portal to all federal, state and local government web resources and services.